Location: Avington
(51.4000°N, 1.4667°W)
Time: 09:18:14
(UTC+00:00)

Daily predictions for brighter satellites

Satellite Brightness Start Highest point End
(mag) Time Altitude Azimuth Time Altitude Azimuth Time Altitude Azimuth
STARLINK-1233 3.9 20:50:05 10° W 20:54:14 76° N 20:58:23 10° ENE
CZ-2C R/B 4.5 20:50:08 10° N 20:54:32 57° WNW 20:58:59 10° SSW
STARLINK-1112 3.7 20:50:43 10° WNW 20:54:52 69° SSW 20:58:58 10° ESE
STARLINK-1143 3.6 20:52:26 10° SW 20:56:31 63° SSE 21:00:38 10° ENE
Aureole 2 4.2 20:54:06 10° NNW 20:57:19 66° ENE 21:00:16 10° SSE
STARLINK-1209 3.4 20:54:57 10° WNW 20:58:13 66° N 21:01:31 10° E
STARLINK-1204 3.9 20:55:04 10° W 20:59:14 74° N 21:03:22 10° ENE
STARLINK-1128 3.7 20:55:42 10° WNW 20:59:49 66° SSW 21:03:56 10° ESE
STARLINK-1241 3.6 20:57:25 10° WSW 21:01:31 66° SSE 21:05:39 10° ENE
deb Kosmos-1763 4.0 20:59:22 10° NNW 21:03:00 87° ENE 21:06:36 10° SSE
Cosmos 1300 Rocket 4.2 20:58:40 10° NNW 21:03:03 57° W 21:07:23 10° S
STARLINK-1238 3.9 21:00:05 10° W 21:04:14 73° N 21:08:23 10° ENE
STARLINK-1113 3.8 21:00:42 10° WNW 21:04:48 63° SSW 21:08:54 10° SE
Aureole 2 Rocket 2.5 21:02:39 10° S 21:05:35 41° ESE 21:08:23 10° NE
STARLINK-1239 3.6 21:02:22 10° WSW 21:06:30 69° SSE 21:10:37 10° ENE
STARLINK-1201 3.9 21:05:04 10° W 21:09:13 72° N 21:13:22 10° E
STARLINK-1119 3.8 21:05:42 10° WNW 21:09:48 59° SSW 21:13:52 10° SE
Cosmos 1437 Rocket 2.6 21:06:56 10° S 21:10:43 78° E 21:14:34 10° NNE
STARLINK-1240 3.6 21:07:18 10° WSW 21:11:26 73° SSE 21:15:35 10° ENE
Cosmos 1378 4.0 21:10:04 10° SSE 21:13:23 31° E 21:16:42 10° NNE
ISS -1.3 21:12:38 10° WSW 21:14:12 13° SW 21:15:45 10° SSW
STARLINK-1206 3.9 21:10:04 10° W 21:14:13 71° N 21:18:22 10° E
STARLINK-1114 3.9 21:10:40 10° WNW 21:14:44 56° SSW 21:18:48 10° SE
Meteor 1-15 Rocket 4.4 21:09:16 10° NNW 21:15:15 89° E 21:21:10 10° S
STARLINK-1203 3.6 21:12:07 10° WSW 21:16:19 76° SSE 21:20:31 10° ENE
STARLINK-1216 3.6 21:12:16 10° WSW 21:16:24 76° SSE 21:20:33 10° ENE
Lacrosse 5 3.6 21:13:13 10° WNW 21:17:04 22° SW 21:20:56 10° S
Cosmos 304 Rocket 3.8 21:12:32 10° S 21:17:15 63° ESE 21:22:01 10° NNE
USA 215 3.9 21:11:19 10° E 21:17:43 57° N 21:24:05 10° WNW
NOSS 8 (E) 4.0 21:15:13 10° SW 21:18:22 73° SE 21:21:26 10° NE
STARLINK-1205 3.9 21:15:03 10° W 21:19:12 70° N 21:23:21 10° E
STARLINK-1130 (DARKSAT) 3.9 21:15:40 10° WNW 21:19:43 53° SSW 21:23:37 11° SE
STARLINK-1237 3.6 21:17:14 10° WSW 21:21:23 79° SSE 21:25:33 10° ENE
CENTAUR R/B 3.5 21:13:57 10° NW 21:21:36 63° NE 21:30:12 10° ESE
NOSS 2-2 (D) 3.8 21:18:26 10° S 21:21:42 33° ESE 21:25:18 10° ENE
Cosmos 1092 Rocket 4.5 21:16:05 10° SSE 21:21:46 42° E 21:27:30 10° NNE
CZ-2C R/B 4.1 21:17:23 10° N 21:22:39 43° WNW 21:27:55 10° SW
STARLINK-1218 4.0 21:20:03 10° W 21:24:12 70° N 21:28:21 10° E
STARLINK-1084 4.0 21:20:39 10° WNW 21:24:40 50° SSW 21:28:24 12° SE
ATLAS 3B R/B 3.8 21:18:26 10° NW 21:24:45 41° NNE 21:31:14 10° E
Cosmos 1674 Rocket 3.6 21:21:32 10° S 21:25:55 86° W 21:30:22 10° N
STARLINK-1202 3.6 21:22:13 10° WSW 21:26:22 82° SSE 21:30:32 10° ENE
SL-27 R/B 3.5 21:23:02 10° N 21:26:24 36° ENE 21:29:28 11° SE
NOSS 3-2 (C) 4.2 21:19:43 10° NW 21:26:58 69° NE 21:35:13 10° ESE
Cosmos 1378 Rocket 3.5 21:24:24 10° S 21:28:48 80° E 21:33:12 10° NNE
STARLINK-1254 4.0 21:25:02 10° W 21:29:11 69° N 21:33:20 10° E
Cosmos 1766 3.5 21:25:15 10° N 21:29:12 58° ENE 21:32:47 12° SSE
STARLINK-1098 4.1 21:25:39 10° WNW 21:29:38 47° SSW 21:33:11 13° SE
STARLINK-1231 4.0 21:30:02 10° W 21:34:10 69° N 21:38:18 10° E
STARLINK-1123 4.2 21:30:37 10° WNW 21:34:35 44° SSW 21:37:56 14° SE
STARLINK-1246 3.6 21:32:11 10° WSW 21:36:21 88° SSE 21:40:31 10° ENE
Cosmos 1900 4.5 21:31:28 10° NW 21:36:31 76° SW 21:41:01 13° SSE
IGS 5A 4.2 21:32:42 10° S 21:36:44 49° W 21:40:48 10° NNW
Cosmos 1943 Rocket 2.6 21:32:57 10° S 21:38:07 41° ESE 21:43:20 10° NE
Cosmos 2297 3.7 21:32:27 10° SSW 21:38:08 80° ESE 21:43:53 10° NNE
NOSS 2-2 (E) 3.2 21:35:19 10° SSW 21:38:51 59° SE 21:43:00 10° NE
STARLINK-1232 4.0 21:35:02 10° W 21:39:10 69° N 21:43:19 10° E
STARLINK-1097 4.2 21:35:39 10° WNW 21:39:34 42° SSW 21:42:45 14° SE
STARLINK-1224 3.6 21:37:09 10° WSW 21:41:19 89° NNW 21:45:29 10° ENE
Cosmos 2082 Rocket 3.8 21:36:39 10° NW 21:41:25 28° WSW 21:46:09 10° SSW
SeaSat 1 4.3 21:40:17 10° ENE 21:42:42 14° E 21:44:35 11° SE
SAR-Lupe-2 4.1 21:40:29 10° N 21:44:03 60° WNW 21:47:36 10° SSW
STARLINK-1208 3.9 21:40:00 10° W 21:44:08 69° N 21:48:17 10° E
STARLINK-1099 4.3 21:40:38 10° WNW 21:44:31 39° SSW 21:47:31 15° SSE
Cosmos 1461 3.1 21:41:50 10° SW 21:46:02 77° NW 21:50:29 10° NE
STARLINK-1225 3.6 21:42:09 10° WSW 21:46:18 86° NNW 21:50:29 10° ENE
STARLINK-1212 2.9 21:44:20 10° WNW 21:47:27 78° NNE 21:50:34 10° E
STARLINK-1105 2.9 21:44:48 10° WNW 21:47:55 78° N 21:51:01 10° E
Cosmos 1975 Rocket 3.5 21:44:36 13° SSE 21:48:21 47° E 21:52:36 10° NNE
STARLINK-1247 2.9 21:45:40 10° WNW 21:48:48 79° NNE 21:51:56 10° E
STARLINK-1271 3.9 21:45:01 10° W 21:49:09 69° N 21:53:18 10° E
STARLINK-1227 2.9 21:46:10 10° WNW 21:49:18 79° NNE 21:52:23 10° E
STARLINK-1104 4.4 21:45:37 10° WNW 21:49:27 37° SW 21:52:18 16° SSE
Meteor 1-23 Rocket 4.4 21:43:47 10° SSW 21:49:29 77° WNW 21:55:08 10° N
BREEZE-M DEB (TANK) 4.1 21:33:13 10° SW 21:49:59 56° SSE 21:54:18 10° E
STARLINK-1226 2.9 21:47:02 10° WNW 21:50:09 79° NNE 21:53:17 10° E
BREEZE-M DEB (TANK) 2.9 21:46:24 10° W 21:50:58 70° S 21:54:28 10° E
STARLINK-1215 2.9 21:47:55 10° WNW 21:51:03 80° NNE 21:54:11 10° ESE
STARLINK-1230 3.7 21:47:07 10° WSW 21:51:17 84° NNW 21:55:27 10° ENE
STARLINK-1217 2.9 21:49:44 10° WNW 21:52:53 81° NNE 21:56:00 10° ESE
STARLINK-1229 2.9 21:50:39 10° WNW 21:53:47 82° NNE 21:56:53 10° ESE
STARLINK-1154 3.9 21:50:00 10° W 21:54:09 70° N 21:58:17 10° E
Cosmos 2369 Rocket 2.7 21:49:04 10° S 21:54:18 40° ESE 21:59:32 10° NE
STARLINK-1270 2.9 21:51:32 10° WNW 21:54:40 82° NNE 21:57:45 10° ESE
STARLINK-1243 3.7 21:52:07 10° WSW 21:56:17 82° NNW 22:00:27 10° ENE
STARLINK-1189 2.9 21:53:20 10° WNW 21:56:28 83° NNE 21:59:29 11° ESE
STARLINK-1188 2.9 21:54:15 10° WNW 21:57:23 84° N 22:00:22 11° ESE
STARLINK-1187 2.8 21:55:21 10° WNW 21:58:28 89° NNE 22:01:14 12° ESE
SPOT 5 3.4 21:53:31 11° S 21:58:29 67° WSW 22:03:51 10° NNW
STARLINK-1197 3.9 21:54:57 10° W 21:59:07 70° N 22:03:15 10° E
STARLINK-1191 2.8 21:56:41 10° WNW 21:59:48 85° N 22:02:39 12° ESE
ATLAS CENTAUR R/B 3.4 21:59:35 12° ESE 22:00:01 12° ESE 22:01:48 10° E
STARLINK-1221 2.8 21:57:39 10° WNW 22:00:46 86° NNE 22:03:35 12° ESE
STARLINK-1236 3.7 21:57:05 10° W 22:01:15 80° NNW 22:05:25 10° ENE
STARLINK-1222 2.8 21:58:29 10° WNW 22:01:37 87° NNE 22:04:23 12° ESE
STARLINK-1214 2.8 21:59:23 10° WNW 22:02:30 87° N 22:05:16 13° ESE
NOSS 2-2 (C) 3.1 21:59:52 10° SW 22:03:27 78° SE 22:07:36 10° NE
STARLINK-1198 3.9 21:59:57 10° W 22:04:06 71° N 22:08:15 10° E
Meteor 1-22 Rocket 4.4 21:58:11 10° NNW 22:04:08 78° W 22:09:05 14° S
EXPRESS MD2 3.9 22:00:37 10° WSW 22:04:11 59° SSE 22:11:21 10° E
ERS-1 Rocket 3.6 21:59:40 10° S 22:04:30 51° W 22:09:26 10° NNW
Cosmos 1025 Rocket 4.3 22:02:58 16° SE 22:05:22 26° E 22:08:56 10° NNE
Okean 2 3.4 22:02:00 13° S 22:05:39 77° E 22:09:50 10° NNE
Cosmos 2026 Rocket 4.1 22:00:23 12° S 22:06:07 65° E 22:12:27 10° NNE
BREEZE M DEB (TANK) 2.4 22:02:46 10° WSW 22:06:39 43° S 22:08:33 12° E
Cosmos 1553 Rocket 4.3 22:00:40 10° N 22:06:53 56° ENE 22:11:43 16° SSE
ATLAS 2AS CENTAUR R/B 3.6 22:00:30 10° S 22:07:30 36° ESE 22:14:31 10° NE
Cosmos 1953 3.8 22:04:44 10° NNE 22:08:07 25° ENE 22:10:41 14° ESE
NOSS 3-2 (A) 4.2 22:01:00 10° NW 22:08:20 65° SW 22:15:11 16° SSE
STARLINK-1228 3.1 22:04:50 10° WNW 22:08:20 78° SSW 22:11:08 15° ESE
Cosmos 1805 4.1 22:05:14 10° NNW 22:09:01 46° W 22:12:24 12° SSW
STARLINK-1199 3.9 22:04:58 10° W 22:09:06 72° N 22:13:15 10° E
Cosmos 1470 3.1 22:05:35 10° N 22:09:24 50° ENE 22:11:51 20° SE
STARLINK-1235 2.9 22:07:34 10° WNW 22:10:48 77° SSW 22:13:12 17° ESE
STARLINK-1269 3.8 22:07:04 10° W 22:11:14 76° N 22:15:23 10° ENE
Resurs 01 Rocket 4.4 22:11:24 10° WSW 22:12:46 11° W 22:14:09 10° WNW
Cosmos 968 Rocket 3.5 22:08:32 10° NNW 22:13:43 75° ENE 22:17:31 18° SSE
STARLINK-1210 3.8 22:09:56 10° WNW 22:14:05 73° N 22:18:14 10° E
STARLINK-1200 3.8 22:12:02 10° W 22:16:11 75° N 22:20:21 10° ENE
Cosmos 1455 Rocket 3.0 22:11:56 10° NNW 22:16:18 86° W 22:19:25 19° S
STARLINK-1219 3.8 22:14:54 10° WNW 22:19:03 74° N 22:23:13 10° E
USA 238 DEB 4.2 22:13:12 10° NW 22:20:10 56° SW 22:25:51 17° SSE
USA 238 4.2 22:13:17 10° NW 22:20:17 56° SW 22:25:58 17° SSE
SL-4 R/B 3.3 22:20:29 10° ENE 22:21:02 11° ENE 22:21:35 10° NE
STARLINK-1192 3.8 22:17:03 10° W 22:21:12 74° N 22:25:21 10° ENE
ATLAS 5 CENTAUR R/B 3.1 22:21:46 20° SE 22:21:46 20° SE 22:23:38 10° E
Cosmos 1758 3.5 22:18:52 10° N 22:22:55 63° ENE 22:25:25 22° SSE
Abrixas rocket 4.5 22:23:00 10° SW 22:23:18 10° SW 22:23:18 10° SW
STARLINK-1211 3.8 22:19:54 10° WNW 22:24:04 75° N 22:28:13 10° E
SL-4 R/B 3.0 22:21:12 10° SSW 22:25:30 34° SE 22:29:52 10° E
STARLINK-1244 3.9 22:22:02 10° W 22:26:11 72° N 22:30:20 10° ENE
Terra 2.5 22:23:15 14° S 22:27:06 48° W 22:31:44 10° NNW
Cosmos 1842 3.2 22:24:07 16° SSW 22:27:11 83° WNW 22:31:06 10° N
ERBS 4.3 22:24:38 10° WNW 22:27:39 31° N 22:30:40 10° ENE
STARLINK-1234 3.0 22:25:20 10° WNW 22:28:34 60° SSW 22:30:16 25° SE
Meteor 2-13 Rocket 4.4 22:23:30 14° S 22:28:55 81° E 22:35:07 10° NNE
STARLINK-1245 3.7 22:24:53 10° WNW 22:29:03 77° N 22:33:12 10° E
STARLINK-1138 3.9 22:27:01 10° W 22:31:11 71° N 22:35:19 10° E
Cosmos 1503 Rocket 4.1 22:28:32 10° NNW 22:33:53 80° ENE 22:37:35 21° SSE
STARLINK-1233 3.7 22:29:51 10° WNW 22:34:00 79° NNE 22:38:10 10° E
STARLINK-1209 3.1 22:31:31 10° WNW 22:34:45 54° SSW 22:36:13 28° SE
STARLINK-1143 3.9 22:32:00 10° W 22:36:08 71° N 22:40:17 10° E
STARLINK-1204 3.7 22:34:50 10° WNW 22:39:00 80° NNE 22:43:09 10° E
SJ 16-02 4.2 22:40:09 10° NNE 22:41:07 11° NE 22:42:05 10° NE
STARLINK-1241 3.9 22:37:01 10° W 22:41:10 70° N 22:45:19 10° E
STARLINK-1238 3.6 22:39:50 10° WNW 22:44:00 83° NNE 22:48:10 10° ESE
Cosmos 2263 4.2 22:39:19 14° SSW 22:44:03 66° ESE 22:49:39 10° NE
STARLINK-1239 3.9 22:42:00 10° W 22:46:09 69° N 22:50:18 10° E
Cosmos 1536 Rocket 3.7 22:45:44 24° SSE 22:48:09 58° E 22:52:27 10° NNE
STARLINK-1201 3.6 22:44:49 10° WNW 22:48:59 85° NNE 22:53:08 10° ESE
Cosmos 1674 4.4 22:48:20 17° ESE 22:49:40 21° E 22:52:33 10° NE
STARLINK-1240 3.9 22:46:59 10° W 22:51:07 69° N 22:55:16 10° E
Cosmos 1271 Rocket 2.7 22:49:29 24° S 22:51:44 84° ESE 22:55:43 10° NNE
Cosmos 1242 Rocket 2.8 22:49:25 20° SSW 22:51:52 68° WNW 22:55:33 10° N
Cosmos 1544 Rocket 4.1 22:48:50 10° NNW 22:53:03 51° W 22:55:47 20° SSW
Cosmos 1354 Rocket 4.0 22:47:53 10° NNW 22:53:13 83° WSW 22:56:35 23° SSE
STARLINK-1206 3.6 22:49:49 10° WNW 22:53:59 87° NNE 22:58:08 10° ESE
STARLINK-60 3.2 22:52:20 21° SW 22:54:05 44° SSE 22:57:09 10° ENE
Meteor 1-21 4.3 22:50:09 15° SSW 22:54:57 76° WNW 23:00:35 10° N
STARLINK-1216 3.9 22:51:58 10° W 22:56:06 69° N 23:00:15 10° E
STARLINK-1203 4.0 22:52:02 10° W 22:56:14 69° N 23:00:26 10° E
COSMOS 2455 3.4 22:52:50 21° S 22:56:14 40° ESE 23:01:49 10° NE
Spot 4 3.8 22:53:29 24° SSE 22:56:30 89° WSW 23:01:23 10° NNW
Cosmos 1833 4.3 22:52:03 10° NW 22:57:39 65° WSW 23:01:10 23° S
STARLINK-1205 3.6 22:54:47 10° WNW 22:58:56 90° NW 23:03:06 10° ESE
Cosmos 2297 Rocket 3.9 22:55:17 10° NNW 23:00:07 28° NE 23:04:56 10° E
USA 215 3.3 22:53:56 10° ESE 23:00:31 88° NNE 23:07:07 10° WNW
STARLINK-1237 3.9 22:56:57 10° W 23:01:06 69° N 23:05:15 10° E
SL-27 R/B 4.4 22:58:32 10° NW 23:01:19 21° W 23:03:01 15° SW
Cosmos 1707 2.7 22:59:44 26° S 23:01:49 88° ESE 23:05:45 10° N
Lacrosse 4 Rocket 4.3 23:00:51 10° N 23:03:27 15° NNE 23:06:01 10° ENE
STARLINK-1218 3.5 22:59:46 10° WNW 23:03:56 87° SSW 23:07:55 11° ESE
Helios 1A 4.2 23:01:35 17° ESE 23:04:13 34° ENE 23:08:01 10° N
Cosmos 1726 2.0 23:01:55 10° N 23:05:40 85° E 23:07:20 31° SSE
STARLINK-1202 3.9 23:01:57 10° W 23:06:06 69° N 23:10:14 10° E
Cosmos 1174 4.1 23:06:37 32° SE 23:07:12 35° ESE 23:10:39 10° NE
Timation 2 Rocket 4.3 23:01:32 10° NNW 23:07:52 61° NE 23:12:55 15° SE
STARLINK-1254 3.5 23:04:45 10° WNW 23:08:55 84° SSW 23:12:41 12° ESE
COSMOS 2487 2.3 23:05:42 10° NNW 23:09:12 84° WSW 23:10:32 35° SSE
ALOS 2 2.8 23:07:47 25° SSE 23:10:14 66° ENE 23:14:37 10° N
CENTAUR R/B 3.5 23:04:46 10° NW 23:12:29 52° WSW 23:18:18 21° S
STARLINK-1231 3.5 23:09:43 10° WNW 23:13:53 81° SSW 23:17:27 14° ESE
Meteor 1-16 Rocket 4.1 23:08:59 10° NNW 23:14:33 89° ENE 23:17:49 25° SSE
Cosmos 1867 3.9 23:10:30 10° NW 23:15:48 52° WSW 23:18:45 25° S
ATLAS 3B R/B 2.7 23:09:14 10° NW 23:16:01 78° SW 23:21:09 20° SSE
STARLINK-1246 3.9 23:11:56 10° W 23:16:05 70° N 23:20:14 10° E
EO 1 Del DPAF 3.4 23:13:34 10° N 23:17:21 68° WNW 23:19:29 24° SSW
STARLINK-1232 3.5 23:14:43 10° WNW 23:18:52 78° SSW 23:22:14 15° ESE
FALCON 9 DEB 4.4 23:20:07 24° ESE 23:20:07 24° ESE 23:22:15 10° E
Cosmos 1606 Rocket 3.9 23:15:05 10° N 23:19:22 56° ENE 23:21:36 26° SE
Cosmos 1992 Rocket 4.0 23:16:14 17° SSW 23:20:14 83° WNW 23:25:30 10° NNE
SeaSat 1 2.4 23:16:01 10° NNE 23:20:59 75° ESE 23:24:20 21° SSW
STARLINK-1224 3.9 23:16:55 10° W 23:21:04 71° N 23:25:13 10° E
Cosmos 1943 Rocket 3.3 23:16:34 10° WSW 23:21:52 43° NW 23:27:14 10° NNE
STARLINK-1212 3.8 23:20:17 10° W 23:22:54 31° SW 23:22:54 31° SW
STARLINK-1105 3.8 23:20:45 10° W 23:23:20 31° SW 23:23:20 31° SW
STARLINK-1208 3.5 23:19:40 10° WNW 23:23:50 75° SSW 23:27:00 17° ESE
STARLINK-29 3.3 23:24:02 41° SSE 23:24:02 41° SSE 23:27:03 10° E
NOSS 5 (C) 4.3 23:21:04 10° NW 23:24:11 68° SW 23:25:32 34° SSE
STARLINK-1247 3.8 23:21:38 10° W 23:24:14 31° SW 23:24:14 31° SW
STARLINK-1227 3.8 23:22:08 10° W 23:24:39 30° SW 23:24:39 30° SW
STARLINK-1226 3.9 23:23:00 10° W 23:25:31 30° SW 23:25:31 30° SW
STARLINK-1225 3.9 23:21:55 10° W 23:26:04 71° N 23:30:13 10° E
ATLAS CENTAUR R/B 2.1 23:24:38 10° NW 23:26:28 36° NNE 23:29:18 10° E
STARLINK-1215 3.9 23:23:54 10° W 23:26:23 30° SW 23:26:23 30° SW
STARLINK-1217 4.0 23:25:43 10° W 23:28:08 28° SW 23:28:08 28° SW
STARLINK-1271 3.5 23:24:41 10° WNW 23:28:50 72° SSW 23:31:49 18° ESE
STARLINK-1229 4.0 23:26:38 10° W 23:29:01 28° SW 23:29:01 28° SW
NOSS 3-4 (A) 3.4 23:23:53 12° SW 23:29:29 78° SE 23:35:56 10° NE
NOSS 3-4 (C) 3.4 23:24:02 12° SW 23:29:34 78° SE 23:36:02 10° NE
STARLINK-1270 4.0 23:27:32 10° W 23:29:53 28° SW 23:29:53 28° SW
RESURS DK-1 3.3 23:29:48 28° SE 23:30:56 32° ESE 23:34:40 10° NE
STARLINK-1230 3.8 23:26:54 10° WNW 23:31:03 72° N 23:35:12 10° E
Meteor 2-10 4.5 23:27:01 10° NNW 23:31:53 49° W 23:34:44 23° SSW
STARLINK-1189 4.1 23:29:21 10° W 23:31:36 27° SW 23:31:36 27° SW
STARLINK-1188 4.1 23:30:16 10° W 23:32:29 26° SW 23:32:29 26° SW
Cosmos 2315 Rocket 4.0 23:26:48 10° N 23:33:03 86° E 23:36:58 24° S
STARLINK-1154 3.5 23:29:40 10° WNW 23:33:48 68° SSW 23:36:35 20° SE
STARLINK-1187 4.4 23:31:26 10° W 23:33:23 23° WSW 23:33:23 23° WSW
Cosmos 2084 4.5 23:33:36 27° SSE 23:34:37 30° ESE 23:38:32 10° ENE
STARLINK-1191 4.3 23:32:43 10° W 23:34:47 24° SW 23:34:47 24° SW
STARLINK-1243 3.8 23:31:54 10° WNW 23:36:03 73° N 23:40:12 10° E
Cosmos 1340 Rocket 3.4 23:32:22 10° NNW 23:36:18 48° W 23:38:06 28° SSW
STARLINK-1221 4.3 23:33:41 10° W 23:35:42 24° WSW 23:35:42 24° WSW
STARLINK-1222 4.3 23:34:32 10° W 23:36:31 23° WSW 23:36:31 23° WSW
Cosmos 1626 3.6 23:36:00 21° ESE 23:37:16 25° E 23:40:23 10° NNE
Cosmos 2227 Rocket 3.4 23:32:00 10° NNW 23:37:20 39° NE 23:42:38 10° ESE
STARLINK-1214 4.4 23:35:27 10° W 23:37:23 23° WSW 23:37:23 23° WSW
Cosmos 2369 Rocket 3.2 23:32:53 10° WSW 23:38:19 45° NW 23:43:44 10° NNE
ATLAS CENTAUR R/B 1.3 23:35:42 23° SSW 23:38:20 77° SE 23:42:25 10° NE
STARLINK-1197 3.5 23:34:37 10° WNW 23:38:45 65° SSW 23:41:21 21° SE
Cosmos 1908 3.1 23:37:08 10° NNW 23:40:58 83° W 23:42:29 35° S
STARLINK-1236 3.8 23:36:52 10° WNW 23:41:01 75° N 23:45:11 10° E
Cosmos 1025 Rocket 4.1 23:39:50 16° SW 23:42:49 37° WNW 23:46:51 10° N
Thor Agena Rocket 4.3 23:38:20 10° N 23:43:27 49° WNW 23:47:47 14° SW
STARLINK-1198 3.6 23:39:36 10° WNW 23:43:42 62° SSW 23:46:07 23° SE
Aureole 3 3.2 23:40:33 10° NNW 23:43:44 48° W 23:44:31 37° SW
Cosmos 1953 3.4 23:40:57 10° NNW 23:44:34 34° W 23:46:22 23° SW
STARLINK-1199 3.6 23:44:36 10° WNW 23:48:42 58° SSW 23:50:55 25° SE
Landsat 4 4.2 23:46:11 10° NNE 23:49:46 44° E 23:51:00 32° SSE
SL-4 R/B 2.4 23:50:08 22° W 23:50:08 22° W 23:51:41 10° NW
Nimbus 7 Rocket 4.5 23:43:46 10° NNE 23:49:53 83° WNW 23:54:04 21° SSW
STARLINK-1269 3.7 23:46:51 10° WNW 23:51:00 78° N 23:55:10 10° E
Cosmos 1656 Rocket 4.1 23:46:09 12° SW 23:51:20 61° NW 23:56:52 10° NNE
STARLINK-1210 3.7 23:49:35 10° WNW 23:53:39 55° SSW 23:55:41 27° SE
KORONAS-FOTON 3.7 23:52:25 35° S 23:53:58 88° WNW 23:57:52 10° N
